This is the latest recevied weather packets stored in our database for station/object K7LDN-13. If no packets are shown the sender has not sent any weather packets the latest 1 day(s).
| Time | Temp. | Humidity | Pressure | Rain* | Wind** | Luminosity | Snow |
|---|---|---|---|---|---|---|---|
| 1778037429 | 11.67° C | 60% | 1012.4 hPa | 0 mm | 2.24 m/s, 176° | 0 W/m² | - |
| 1778037126 | 11.67° C | 59% | 1012.4 hPa | 0 mm | 1.79 m/s, 178° | 0 W/m² | - |
| 1778036824 | 11.67° C | 58% | 1012.8 hPa | 0 mm | 2.24 m/s, 164° | 0 W/m² | - |
| 1778036521 | 11.67° C | 58% | 1012.6 hPa | 0 mm | 1.79 m/s, 151° | 0 W/m² | - |
| 1778036218 | 11.67° C | 56% | 1012.5 hPa | 0 mm | 4.02 m/s, 161° | 0 W/m² | - |
| 1778035914 | 12.22° C | 55% | 1012.6 hPa | 0 mm | 1.79 m/s, 171° | 0 W/m² | - |
| 1778035612 | 12.22° C | 55% | 1012.4 hPa | 0 mm | 2.24 m/s, 182° | 0 W/m² | - |
| 1778035308 | 12.22° C | 55% | 1012.5 hPa | 0 mm | 2.24 m/s, 151° | 1 W/m² | - |
| 1778035004 | 12.22° C | 54% | 1012.3 hPa | 0 mm | 1.79 m/s, 145° | 1 W/m² | - |
| 1778034702 | 12.22° C | 54% | 1012.2 hPa | 0 mm | 3.13 m/s, 171° | 3 W/m² | - |
| 1778034399 | 12.22° C | 54% | 1012.5 hPa | 0 mm | 2.24 m/s, 145° | 2 W/m² | - |
| 1778034096 | 12.78° C | 54% | 1012.2 hPa | 0 mm | 1.79 m/s, 148° | 5 W/m² | - |
| 1778033794 | 12.78° C | 53% | 1012 hPa | 0 mm | 3.13 m/s, 180° | 11 W/m² | - |
| 1778033491 | 12.78° C | 52% | 1011.9 hPa | 0 mm | 1.34 m/s, 151° | 14 W/m² | - |
| 1778033188 | 13.33° C | 51% | 1012 hPa | 0 mm | 2.24 m/s, 150° | 18 W/m² | - |
| 1778032885 | 13.33° C | 51% | 1012 hPa | 0 mm | 2.24 m/s, 180° | 24 W/m² | - |
| 1778032583 | 13.89° C | 50% | 1012 hPa | 0 mm | 3.13 m/s, 163° | 29 W/m² | - |
| 1778032280 | 13.89° C | 49% | 1012.2 hPa | 0 mm | 4.02 m/s, 177° | 34 W/m² | - |
| 1778031977 | 13.89° C | 49% | 1011.9 hPa | 0 mm | 2.24 m/s, 159° | 39 W/m² | - |
| 1778031672 | 14.44° C | 48% | 1012.2 hPa | 0 mm | 4.92 m/s, 151° | 46 W/m² | - |
| 1778031371 | 14.44° C | 47% | 1012.2 hPa | 0 mm | 4.02 m/s, 183° | 54 W/m² | - |
| 1778031068 | 14.44° C | 47% | 1012 hPa | 0 mm | 1.79 m/s, 158° | 60 W/m² | - |
| 1778030764 | 15° C | 47% | 1012 hPa | 0 mm | 1.79 m/s, 149° | 69 W/m² | - |
| 1778030460 | 15° C | 47% | 1011.9 hPa | 0 mm | 3.13 m/s, 157° | 80 W/m² | - |
| 1778030153 | 15° C | 47% | 1011.9 hPa | 0 mm | 1.34 m/s, 148° | 91 W/m² | - |
* Rain latest hour (hover to see other rain measurements)
** Current wind speed in m/s (hover to see current wind gust speed)